World > North America > United States > Wisconsin

Richland Center, Wisconsin Regional Weather

Lat: 43.34N, Lon: 90.38W
Wx Zone: WIZ055Web Search
Richland Center Weather Warning NWS WEATHER ALERT FOR THE RICHLAND CENTER, WI AREA - Issued: 408 AM CDT Sun Oct 25 2020 Richland Center Weather Warning  

Helpful Tip: Abbreviated, 7 Day, 14 Day Forecasts. There is a weather forecast for every taste.

Feedback
Richland Center Weather Map
UTC Time: 10/25/2020, 13:38
Your Time:

Richland Center, WI Regional Weather

Expires:202010251400;;815613
ASUS43 KMKX 251321
RWRWI 

WISCONSIN REGIONAL WEATHER ROUNDUP
NATIONAL WEATHER SERVICE MILWAUKEE/SULLIVAN WI
800 AM CDT SUN OCT 25 2020

NOTE: "FAIR" INDICATES FEW OR NO CLOUDS BELOW 12,000 FEET WITH NO
SIGNIFICANT WEATHER AND/OR OBSTRUCTIONS TO VISIBILITY.


WIZ032>034-041-042-053>061-251400-
SOUTHWEST WISCONSIN
  
CITY           SKY/WX    TMP DP  RH WIND       PRES   REMARKS
LA CROSSE      CLOUDY    32  20  61 N7        30.33R WCI  26          
SPARTA         CLOUDY    29  24  80 N3        30.33R                  
VIROQUA        CLOUDY    30  24  79 NE5       30.28S WCI  25          
BOSCOBEL       CLOUDY    34  21  59 VRB3      30.31S                  
PRAIRIE DU CHI CLOUDY    33  20  59 N3        30.31R                  
PLATTEVILLE    MOCLDY    32  25  74 N10       30.28R WCI  24          
$$


SKY/WX - Weather  TMP - Temperature  DP - Dew Point  RH - Relative Humidity
WIND - Wind Direction/Speed PRES - Barometric Pressure VSB - Visibility
WCI - Wind Chill Index E13G22 Wind - East Wind 13 mph/Gusts of 22 mph